F4ETJ-1 Weather Reports


time (UTC)temp
C
wind
direction
speed
KPH
gust
KPH
rain 1hr
cm
rain 24hr
cm
rain mn
cm
humidity
%
barometer
mb
20260506094656 13 338 6.4 14.5 0.00 0.46 0.46 90 1007.7
20260506094055 13 331 3.2 12.9 0.00 0.46 0.46 90 1007.6
20260506093455 13 30 3.2 6.4 0.00 0.46 0.46 92 1007.6
20260506092855 13 358 1.6 4.8 0.00 0.46 0.46 92 1007.5
20260506092254 12 16 3.2 4.8 0.00 0.46 0.46 93 1007.4
20260506091654 12 16 3.2 6.4 0.00 0.46 0.46 94 1007.4
20260506091054 12 20 1.6 4.8 0.03 0.46 0.46 94 1007.4
20260506090453 12 20 1.6 4.8 0.03 0.46 0.46 94 1007.3
20260506085853 12 20 3.2 4.8 0.03 0.46 0.46 95 1007.3
20260506085253 12 20 4.8 6.4 0.05 0.46 0.46 95 1007.2
20260506084652 12 20 4.8 8.0 0.05 0.46 0.46 95 1007.2
20260506084052 12 20 3.2 6.4 0.05 0.46 0.46 95 1007.2
20260506083452 12 19 3.2 8.0 0.05 0.46 0.46 95 1007.2
20260506082852 12 347 3.2 6.4 0.08 0.46 0.46 95 1007.1
20260506082251 12 333 3.2 8.0 0.10 0.46 0.46 95 1007.1
20260506081651 12 357 3.2 6.4 0.13 0.46 0.46 95 1007.1
20260506081050 12 105 1.6 3.2 0.15 0.43 0.43 95 1007.1
20260506080453 12 105 1.6 3.2 0.20 0.43 0.43 95 1007.1
20260506073448 11 105 3.2 6.4 0.30 0.41 0.41 95 1006.9
20260506072852 11 107 1.6 4.8 0.28 0.38 0.38 95 1006.9
20260506072248 11 107 1.6 4.8 0.25 0.36 0.36 95 1006.9
20260506071647 11 107 1.6 3.2 0.25 0.33 0.33 95 1006.9
20260506071047 11 107 1.6 4.8 0.25 0.28 0.28 95 1006.9
20260506070447 11 107 0.0 1.6 0.23 0.23 0.23 95 1006.9
20260506062245 10 97 1.6 4.8 0.10 0.10 0.10 95 1006.7
20260506061644 11 97 1.6 4.8 0.08 0.08 0.08 95 1006.6
20260506061043 10 105 1.6 4.8 0.03 0.03 0.03 94 1006.6
20260506060444 10 105 3.2 6.4 0.00 0.00 0.00 94 1006.6
20260506051040 10 124 1.6 1.6 0.00 0.00 0.00 94 1006.3
20260505232357 10 174 0.0 1.6 0.00 0.03 0.03 90 1007.8
20260505231756 11 174 0.0 0.0 0.00 0.03 0.03 89 1007.8
20260505231155 11 174 1.6 1.6 0.00 0.03 0.03 89 1007.9
20260505225955 11 174 1.6 4.8 0.00 0.03 0.03 89 1008.0
20260505225355 11 174 1.6 3.2 0.00 0.03 0.03 88 1008.0
20260505224755 11 199 1.6 8.0 0.00 0.03 0.03 88 1008.0
20260505222354 11 192 0.0 4.8 0.00 0.03 0.03 87 1008.2
20260505220652 11 207 0.0 1.6 0.00 0.03 0.03 87 1008.2
20260505220553 11 207 0.0 1.6 0.00 0.03 0.03 87 1008.2
20260505215352 11 197 0.0 1.6 0.00 0.03 0.03 86 1008.3
20260505214152 11 156 0.0 0.0 0.00 0.03 0.03 85 1008.4
20260505212350 12 204 1.6 4.8 0.00 0.03 0.03 84 1008.5
20260505205949 12 211 0.0 1.6 0.00 0.03 0.03 83 1008.8
20260505205348 12 211 0.0 3.2 0.00 0.03 0.03 83 1008.9
20260505204748 12 230 0.0 3.2 0.00 0.03 0.03 83 1008.8
20260505204148 12 224 0.0 6.4 0.00 0.03 0.03 83 1008.8
20260505203549 12 226 0.0 1.6 0.00 0.03 0.03 82 1008.8
20260505202347 13 205 1.6 4.8 0.00 0.03 0.03 81 1008.8
20260505201746 13 226 1.6 8.0 0.00 0.03 0.03 81 1008.7
20260505201148 13 237 1.6 6.4 0.00 0.03 0.03 81 1008.7
20260505200549 13 218 0.0 6.4 0.00 0.03 0.03 81 1008.6
20260505194745 13 224 1.6 6.4 0.00 0.03 0.03 79 1008.5
20260505194145 13 240 3.2 6.4 0.00 0.03 0.03 79 1008.4
20260505193546 13 236 4.8 14.5 0.00 0.03 0.03 78 1008.4
20260505175939 15 267 9.7 20.9 0.00 0.03 0.03 72 1008.0
20260505174139 16 255 14.5 20.9 0.00 0.03 0.03 70 1008.0
20260505170538 15 312 9.7 25.7 0.00 0.03 0.03 72 1008.2
20260505164734 15 299 6.4 16.1 0.00 0.03 0.03 75 1008.1
20260505162934 16 302 9.7 22.5 0.00 0.03 0.03 71 1008.2
20260505162333 16 254 9.7 19.3 0.00 0.03 0.03 69 1008.2
20260505152931 16 226 16.1 32.2 0.00 0.03 0.03 68 1008.2
20260505152330 17 283 14.5 25.7 0.00 0.03 0.03 68 1008.2
20260505140527 16 209 14.5 29.0 0.00 0.03 0.03 70 1008.2
20260505122920 15 249 0.0 0.0 0.03 0.03 0.03 84 1008.7
20260505122320 15 249 1.6 1.6 0.03 0.03 0.03 83 1008.6